EW5390 Weather Reports


Display with metric or nautical units.
time (UTC)temp
F
wind
direction
speed
MPH
gust
MPH
rain 1hr
in
rain 24hr
in
rain mn
in
humidity
%
barometer
mb
20260903161600 81 307 0.0 3.0 0.00 0.23 0.08 92 1016.4
20260903161056 80 306 0.0 3.0 0.00 0.23 0.08 92 1016.4
20260903160556 80 318 1.0 3.0 0.00 0.23 0.08 92 1016.4
20260903160104 80 0 0.0 2.0 0.00 0.23 0.08 92 1016.2
20260903155554 80 0 0.0 4.0 0.00 0.23 0.08 93 1016.3
20260903155057 80 0 1.0 4.0 0.00 0.23 0.08 93 1016.3
20260903154607 80 305 0.0 2.0 0.00 0.23 0.08 93 1016.2
20260903154053 80 0 0.0 2.0 0.00 0.23 0.08 93 1016.1
20260903153555 80 350 0.0 2.0 0.00 0.23 0.08 93 1016.2
20260903153109 80 326 0.0 2.0 0.00 0.23 0.08 93 1016.1
20260903152554 80 0 0.0 3.0 0.00 0.23 0.08 94 1016.1
20260903152054 80 313 0.0 3.0 0.00 0.23 0.08 94 1016.1
20260903151611 80 0 0.0 3.0 0.00 0.23 0.08 95 1015.8
20260903151054 79 162 1.0 3.0 0.00 0.23 0.08 96 1015.9
20260903150556 79 323 0.0 2.0 0.00 0.23 0.08 96 1015.9
20260903150107 78 166 1.0 2.0 0.00 0.23 0.08 97 1016.0
20260903145552 78 164 0.0 2.0 0.00 0.23 0.08 97 1015.8
20260903145053 77 172 0.0 2.0 0.00 0.23 0.08 97 1015.7
20260903144558 77 0 0.0 2.0 0.00 0.23 0.08 97 1016.0
20260903144053 77 65 0.0 3.0 0.00 0.23 0.08 97 1015.9
20260903143553 77 162 0.0 3.0 0.00 0.23 0.08 98 1015.9
20260903143058 77 140 1.0 6.0 0.00 0.23 0.08 98 1015.9
20260903142553 77 0 0.0 6.0 0.00 0.23 0.08 98 1016.2
20260903142053 77 339 0.0 3.0 0.00 0.23 0.08 98 1016.0
20260903141604 77 148 0.0 3.0 0.00 0.23 0.08 98 1015.9
20260903141057 77 0 0.0 2.0 0.00 0.23 0.08 99 1016.0
20260903140554 76 0 0.0 2.0 0.00 0.23 0.08 99 1015.9
20260903140113 76 159 0.0 2.0 0.00 0.23 0.08 99 1015.9
20260903135552 76 173 0.0 2.0 0.00 0.23 0.08 99 1016.0
20260903135054 76 0 0.0 1.0 0.00 0.23 0.08 99 1016.1
20260903134556 76 0 0.0 2.0 0.00 0.23 0.08 99 1016.2
20260903134052 75 201 0.0 2.0 0.00 0.23 0.08 99 1016.0
20260903133553 75 148 0.0 2.0 0.00 0.23 0.08 99 1015.8
20260903133104 75 0 0.0 2.0 0.00 0.23 0.08 99 1016.0
20260903132553 75 221 0.0 2.0 0.00 0.23 0.08 99 1015.7
20260903132053 75 92 0.0 2.0 0.00 0.23 0.08 99 1015.9
20260903131610 75 157 0.0 2.0 0.00 0.23 0.08 99 1016.0
20260903131054 75 0 0.0 0.0 0.00 0.23 0.08 99 1016.5
20260903130554 75 0 0.0 0.0 0.00 0.23 0.08 99 1016.9
20260903125554 74 0 0.0 0.0 0.00 0.23 0.08 99 1017.3
20260903125053 74 0 0.0 0.0 0.00 0.23 0.08 99 1017.4
20260903124610 74 0 0.0 0.0 0.00 0.23 0.08 99 1017.4
20260903124053 74 0 0.0 0.0 0.00 0.23 0.08 99 1017.6
20260903123552 74 0 0.0 0.0 0.00 0.23 0.08 99 1017.6
20260903123102 74 0 0.0 0.0 0.00 0.23 0.08 99 1017.9
20260903122553 74 0 0.0 0.0 0.00 0.23 0.08 99 1018.0
20260903122053 74 0 0.0 0.0 0.00 0.23 0.08 99 1017.9
20260903121602 74 0 0.0 0.0 0.00 0.23 0.08 99 1018.1
20260903121053 74 0 0.0 0.0 0.00 0.23 0.08 99 1018.1
20260903120556 74 0 0.0 0.0 0.00 0.23 0.08 99 1018.2
20260903115554 74 0 0.0 0.0 0.00 0.23 0.08 99 1018.2
20260903115053 74 0 0.0 0.0 0.00 0.23 0.08 99 1018.3
20260903114606 74 0 0.0 0.0 0.00 0.23 0.08 99 1018.2
20260903114053 74 0 0.0 0.0 0.00 0.23 0.08 99 1018.0
20260903113557 74 0 0.0 0.0 0.00 0.23 0.08 99 1017.9
20260903113122 74 0 0.0 0.0 0.00 0.23 0.08 99 1018.1
20260903112553 74 0 0.0 0.0 0.00 0.23 0.08 99 1018.3
20260903112052 74 0 0.0 0.0 0.00 0.23 0.08 99 1018.4
20260903111601 74 0 0.0 0.0 0.00 0.23 0.08 99 1018.3
20260903111052 74 0 0.0 0.0 0.00 0.23 0.08 99 1018.1
20260903110553 74 0 0.0 0.0 0.00 0.23 0.08 99 1018.0
20260903110100 74 0 0.0 0.0 0.00 0.23 0.08 99 1017.9
20260903105555 74 0 0.0 0.0 0.00 0.23 0.08 99 1017.9
20260903105054 74 0 0.0 0.0 0.00 0.23 0.08 99 1017.9
20260903104603 74 0 0.0 0.0 0.00 0.23 0.08 99 1017.8
20260903104054 74 0 0.0 1.0 0.06 0.23 0.08 99 1017.8
20260903103552 74 0 0.0 3.0 0.07 0.23 0.08 99 1017.8
20260903103105 74 0 0.0 3.0 0.07 0.23 0.08 99 1017.8
20260903102554 74 62 1.0 4.0 0.07 0.23 0.08 99 1017.7
20260903102051 74 61 2.0 4.0 0.07 0.23 0.08 99 1017.7
20260903101604 74 65 2.0 3.0 0.07 0.23 0.08 99 1017.6
20260903101052 74 59 0.0 2.0 0.07 0.23 0.08 99 1017.4
20260903100552 73 0 0.0 0.0 0.07 0.23 0.08 99 1017.3
20260903100059 73 0 0.0 0.0 0.07 0.23 0.08 99 1017.4
20260903095551 73 0 0.0 0.0 0.07 0.23 0.08 99 1017.3
20260903095051 73 0 0.0 0.0 0.07 0.23 0.08 99 1017.5
20260903094655 73 0 0.0 1.0 0.07 0.23 0.08 99 1017.5
20260903094052 73 0 0.0 1.0 0.01 0.17 0.02 99 1017.5
20260903093551 73 0 0.0 0.0 0.00 0.16 0.01 98 1017.5
20260903093105 73 0 0.0 0.0 0.00 0.16 0.01 98 1017.4
20260903092555 73 0 0.0 0.0 0.00 0.16 0.01 98 1017.3
20260903092056 73 0 0.0 0.0 0.00 0.16 0.01 98 1017.3
20260903091605 73 0 0.0 0.0 0.00 0.16 0.01 98 1017.1
20260903091053 73 0 0.0 0.0 0.00 0.16 0.01 98 1017.2
20260903090552 73 0 0.0 0.0 0.00 0.16 0.01 98 1017.3
20260903090108 73 0 0.0 0.0 0.00 0.16 0.01 98 1017.3
20260903085551 73 0 0.0 0.0 0.00 0.16 0.01 98 1017.1
20260903085051 73 0 0.0 0.0 0.00 0.16 0.01 98 1016.9
20260903084558 73 0 0.0 0.0 0.00 0.16 0.01 98 1016.8
20260903084052 74 0 0.0 0.0 0.00 0.16 0.01 98 1017.0
20260903083552 74 0 0.0 0.0 0.00 0.16 0.01 99 1017.0
20260903083108 74 0 0.0 0.0 0.00 0.16 0.01 98 1017.1
20260903082554 73 0 0.0 0.0 0.00 0.16 0.01 98 1017.2
20260903082051 73 0 0.0 0.0 0.01 0.16 0.01 98 1017.0
20260903081559 73 0 0.0 0.0 0.01 0.16 0.01 98 1017.2
20260903081054 74 0 0.0 0.0 0.01 0.16 0.01 98 1017.3
20260903080552 74 0 0.0 0.0 0.01 0.16 0.01 98 1017.3
20260903080104 74 0 0.0 0.0 0.01 0.16 0.01 98 1017.5
20260903075552 74 0 0.0 0.0 0.01 0.16 0.01 98 1017.4
20260903075051 74 0 0.0 0.0 0.01 0.16 0.01 98 1017.4
20260903074607 74 0 0.0 0.0 0.01 0.16 0.01 98 1017.6
20260903074054 74 0 0.0 0.0 0.01 0.16 0.01 98 1017.3
20260903073551 74 0 0.0 1.0 0.01 0.16 0.01 98 1017.1
20260903073100 74 0 0.0 1.0 0.01 0.16 0.01 98 1017.3
20260903072554 74 0 0.0 1.0 0.01 0.16 0.01 98 1017.4
20260903072056 74 356 0.0 1.0 0.00 0.15 0.00 98 1017.8
20260903071601 74 0 0.0 2.0 0.00 0.15 0.00 98 1018.0
20260903071051 74 0 0.0 2.0 0.00 0.15 0.00 98 1018.0
20260903070554 74 356 1.0 2.0 0.00 0.15 0.00 98 1017.6
20260903070103 74 19 0.0 1.0 0.00 0.15 0.00 98 1017.2
20260903065555 74 19 1.0 1.0 0.00 0.15 0.00 98 1017.0
20260903065051 74 21 0.0 0.0 0.00 0.15 0.00 98 1016.8
20260903064609 74 0 0.0 0.0 0.00 0.15 0.00 98 1016.7
20260903064051 74 0 0.0 0.0 0.00 0.15 0.00 98 1016.9
20260903063550 74 0 0.0 1.0 0.00 0.15 0.00 98 1016.6
20260903063105 74 0 0.0 1.0 0.00 0.15 0.00 98 1016.7
20260903062554 74 21 0.0 1.0 0.00 0.15 0.00 98 1016.7
20260903062054 74 354 0.0 1.0 0.00 0.15 0.00 98 1016.8
20260903061558 73 0 0.0 0.0 0.00 0.15 0.00 98 1016.6
20260903061051 73 351 0.0 1.0 0.00 0.15 0.00 98 1016.3
20260903060551 74 0 0.0 1.0 0.00 0.15 0.00 98 1016.3
20260903060109 73 0 0.0 1.0 0.00 0.15 0.00 98 1016.4
20260903055553 73 0 0.0 1.0 0.00 0.15 0.00 98 1016.4
20260903055051 73 0 0.0 1.0 0.00 0.15 0.00 98 1016.3
20260903054623 73 0 0.0 1.0 0.00 0.15 0.00 98 1016.4
20260903054054 73 350 0.0 1.0 0.00 0.15 0.00 98 1016.5
20260903053554 73 0 0.0 1.0 0.00 0.15 0.00 98 1016.6
20260903053108 73 0 0.0 1.0 0.00 0.15 0.00 98 1016.9
20260903052554 73 0 0.0 1.0 0.00 0.15 0.00 98 1017.0
20260903052057 73 350 0.0 0.0 0.00 0.15 0.00 98 1016.9
20260903051559 73 0 0.0 0.0 0.00 0.15 0.00 98 1017.4
20260903051051 73 0 0.0 0.0 0.00 0.15 0.00 98 1017.5
20260903050551 73 0 0.0 0.0 0.00 0.15 0.00 98 1017.4
20260903045552 73 0 0.0 0.0 0.00 0.18 0.00 98 1017.4
20260903045051 73 0 0.0 0.0 0.00 0.18 0.00 98 1017.3
20260903044603 73 0 0.0 0.0 0.00 0.18 0.00 98 1017.4
20260903044054 73 0 0.0 1.0 0.00 0.18 0.00 98 1017.6
20260903043553 74 0 0.0 1.0 0.00 0.18 0.00 98 1017.7
20260903043100 73 0 0.0 0.0 0.00 0.18 0.00 98 1017.7
20260903042558 73 0 0.0 0.0 0.00 0.18 0.00 98 1017.3
20260903042052 73 0 0.0 0.0 0.00 0.18 0.00 98 1017.4
20260903041612 74 0 0.0 0.0 0.00 0.18 0.00 98 1017.5
20260903041050 74 0 0.0 1.0 0.00 0.18 0.00 98 1017.7
20260903040551 74 0 0.0 1.0 0.00 0.18 0.00 98 1017.6
20260903040126 74 350 0.0 0.0 0.00 0.18 0.00 98 1017.7
20260903035551 74 0 0.0 1.0 0.00 0.18 0.18 98 1018.0
20260903035051 74 0 0.0 1.0 0.00 0.18 0.18 98 1018.0
20260903034604 74 350 0.0 1.0 0.00 0.18 0.18 98 1018.1
20260903034051 74 350 0.0 0.0 0.00 0.18 0.18 98 1018.3
20260903033551 74 0 0.0 0.0 0.00 0.18 0.18 98 1017.8
20260903033102 74 0 0.0 0.0 0.00 0.18 0.18 98 1018.0
20260903032552 74 0 0.0 0.0 0.00 0.18 0.18 98 1017.8
20260903032055 74 0 0.0 0.0 0.00 0.18 0.18 98 1018.0
20260903031600 74 0 0.0 0.0 0.00 0.18 0.18 98 1017.8
20260903031055 74 0 0.0 0.0 0.00 0.18 0.18 98 1017.5
20260903030551 74 0 0.0 0.0 0.00 0.18 0.18 98 1017.7
20260903030057 74 0 0.0 0.0 0.00 0.18 0.18 98 1017.8
20260903025551 74 0 0.0 0.0 0.00 0.62 0.18 98 1017.7
20260903025055 74 0 0.0 0.0 0.00 0.62 0.18 98 1017.8
20260903024600 74 350 0.0 0.0 0.00 0.62 0.18 98 1018.0
20260903024051 74 0 0.0 0.0 0.00 0.62 0.18 98 1018.1
20260903023551 74 0 0.0 0.0 0.00 0.62 0.18 98 1018.1
20260903023102 74 0 0.0 0.0 0.00 0.62 0.18 98 1017.9
20260903022555 74 0 0.0 0.0 0.00 0.62 0.18 98 1017.8
20260903022052 74 0 0.0 0.0 0.00 0.62 0.18 98 1017.8
20260903021603 74 0 0.0 0.0 0.00 0.62 0.18 98 1018.0
20260903021052 74 0 0.0 0.0 0.00 0.62 0.18 98 1017.9
20260903020551 74 0 0.0 0.0 0.00 0.62 0.18 98 1018.0
20260903020058 74 0 0.0 0.0 0.00 0.62 0.18 98 1018.0
20260903015553 74 0 0.0 0.0 0.00 0.62 0.18 98 1017.9
20260903015052 74 0 0.0 0.0 0.00 0.62 0.18 97 1018.0
20260903014604 74 0 0.0 0.0 0.00 0.62 0.18 97 1017.9
20260903014056 74 0 0.0 0.0 0.00 0.62 0.18 97 1017.8
20260903013554 74 0 0.0 0.0 0.00 0.62 0.18 97 1017.8
20260903013106 74 0 0.0 0.0 0.00 0.62 0.18 97 1017.9
20260903012552 74 0 0.0 0.0 0.00 0.62 0.18 97 1017.9
20260903012053 74 0 0.0 0.0 0.00 0.62 0.18 97 1017.8
20260903011607 74 0 0.0 0.0 0.00 0.62 0.18 97 1017.9
20260903011058 74 0 0.0 0.0 0.00 0.62 0.18 97 1017.8
20260903010553 74 0 0.0 0.0 0.00 0.62 0.18 97 1017.7
20260903010110 74 0 0.0 0.0 0.00 0.62 0.18 97 1017.7
20260903005551 74 0 0.0 0.0 0.00 0.62 0.18 97 1017.7
20260903005057 74 0 0.0 0.0 0.00 0.62 0.18 97 1017.9
20260903004602 74 0 0.0 0.0 0.00 0.62 0.18 97 1018.0
20260903004051 74 0 0.0 0.0 0.00 0.62 0.18 97 1018.1
20260903003550 74 0 0.0 0.0 0.00 0.62 0.18 97 1017.9
20260903003101 74 0 0.0 0.0 0.00 0.62 0.18 97 1017.9
20260903002554 74 0 0.0 0.0 0.00 0.62 0.18 97 1017.8
20260903002054 74 0 0.0 0.0 0.00 0.62 0.18 97 1017.8
20260903001606 74 0 0.0 0.0 0.00 0.62 0.18 97 1017.8
20260903001051 74 0 0.0 0.0 0.00 0.62 0.18 97 1017.7
20260903000554 74 0 0.0 0.0 0.00 0.62 0.18 97 1017.4
20260903000059 74 0 0.0 0.0 0.00 0.62 0.18 97 1017.5
20260902235552 74 0 0.0 0.0 0.00 0.62 0.18 97 1017.5
20260902235054 74 0 0.0 0.0 0.00 0.62 0.18 97 1017.5
20260902234558 74 0 0.0 0.0 0.00 0.62 0.18 97 1017.5
20260902234055 74 0 0.0 0.0 0.00 0.62 0.18 97 1017.5
20260902233551 74 0 0.0 0.0 0.00 0.62 0.18 97 1017.6
20260902233058 74 0 0.0 0.0 0.00 0.62 0.18 97 1017.8
20260902232554 74 0 0.0 0.0 0.00 0.62 0.18 97 1017.7
20260902232050 74 0 0.0 0.0 0.00 0.62 0.18 97 1017.7
20260902231602 74 0 0.0 0.0 0.00 0.62 0.18 97 1017.7
20260902231055 74 0 0.0 1.0 0.00 0.62 0.18 97 1017.7
20260902230558 74 0 0.0 1.0 0.00 0.62 0.18 97 1017.7
20260902230125 75 0 0.0 0.0 0.00 0.62 0.18 97 1017.7
20260902225551 75 0 0.0 0.0 0.00 0.62 0.18 97 1017.7
20260902225054 75 0 0.0 0.0 0.00 0.62 0.18 97 1017.7
20260902224606 75 0 0.0 0.0 0.00 0.62 0.18 97 1017.6
20260902224055 75 0 0.0 0.0 0.00 0.62 0.18 97 1017.7
20260902223555 75 0 0.0 1.0 0.00 0.62 0.18 97 1017.7
20260902223102 75 0 0.0 1.0 0.00 0.62 0.18 97 1017.7
20260902222553 75 0 0.0 1.0 0.00 0.62 0.18 97 1017.7
20260902222054 75 0 0.0 0.0 0.00 0.62 0.18 96 1017.8
20260902221601 75 0 0.0 0.0 0.00 0.62 0.18 96 1017.8
20260902221053 75 0 0.0 0.0 0.00 0.62 0.18 96 1017.8
20260902220555 75 0 0.0 0.0 0.00 0.62 0.18 96 1017.8
20260902220117 75 0 0.0 0.0 0.00 0.62 0.18 96 1017.9
20260902215554 75 0 0.0 0.0 0.00 0.62 0.18 96 1017.9
20260902215056 75 0 0.0 1.0 0.00 0.62 0.18 96 1018.0
20260902214633 75 0 0.0 1.0 0.00 0.62 0.18 96 1018.0
20260902214051 75 0 0.0 0.0 0.00 0.62 0.18 96 1018.3
20260902213550 75 0 0.0 0.0 0.00 0.62 0.18 96 1018.3
20260902213100 75 0 0.0 0.0 0.00 0.62 0.18 96 1018.2
20260902212555 75 0 0.0 1.0 0.00 0.62 0.18 96 1018.2
20260902212055 75 0 0.0 1.0 0.00 0.62 0.18 96 1018.2
20260902211558 75 0 0.0 1.0 0.00 0.62 0.18 96 1018.3
20260902211053 75 0 0.0 1.0 0.00 0.62 0.18 97 1018.2
20260902210554 75 0 0.0 1.0 0.00 0.62 0.18 96 1018.4
20260902210135 75 0 0.0 1.0 0.00 0.62 0.18 97 1018.6
20260902205551 75 0 0.0 1.0 0.00 0.62 0.18 97 1018.6
20260902205051 75 0 0.0 0.0 0.00 0.62 0.18 97 1018.4
20260902204606 75 0 0.0 0.0 0.00 0.62 0.18 97 1018.2
20260902204051 75 0 0.0 2.0 0.00 0.62 0.18 97 1018.1
20260902203554 75 0 0.0 3.0 0.00 0.62 0.18 97 1017.8
20260902203106 75 0 1.0 3.0 0.00 0.62 0.18 97 1017.3
20260902202554 75 86 0.0 1.0 0.01 0.62 0.18 97 1017.0
20260902202051 75 0 0.0 1.0 0.01 0.62 0.18 97 1016.8
20260902201621 74 0 0.0 0.0 0.02 0.62 0.18 97 1017.0
20260902201057 74 0 0.0 0.0 0.04 0.62 0.18 96 1016.8
20260902200553 74 0 0.0 1.0 0.06 0.62 0.18 96 1016.7
20260902200112 74 0 0.0 2.0 0.06 0.62 0.18 96 1016.1
20260902195552 75 0 0.0 2.0 0.07 0.62 0.18 96 1015.9
20260902195053 74 0 0.0 2.0 0.07 0.62 0.18 96 1016.1
20260902194605 74 0 0.0 1.0 0.09 0.62 0.18 96 1016.4
20260902194056 74 72 0.0 1.0 0.15 0.62 0.18 96 1016.5
20260902193550 75 0 0.0 1.0 0.15 0.62 0.18 96 1016.7
20260902193104 75 0 0.0 1.0 0.15 0.62 0.18 96 1016.8
20260902192553 75 0 0.0 1.0 0.14 0.61 0.17 95 1016.7
20260902192054 75 169 0.0 1.0 0.14 0.61 0.17 95 1017.6
20260902191604 75 167 0.0 1.0 0.13 0.60 0.16 95 1018.0
20260902191054 76 0 0.0 1.0 0.11 0.58 0.14 95 1018.5
20260902190557 76 172 0.0 1.0 0.09 0.56 0.12 94 1019.2
20260902190128 76 0 0.0 1.0 0.09 0.56 0.12 94 1019.4
20260902185549 77 173 0.0 2.0 0.08 0.55 0.11 93 1019.6
20260902185054 77 0 0.0 2.0 0.08 0.55 0.11 93 1019.6
20260902184611 77 174 1.0 2.0 0.06 0.52 0.09 91 1019.4
20260902184053 78 353 0.0 2.0 0.00 0.47 0.03 90 1019.9
20260902183554 78 346 1.0 2.0 0.00 0.47 0.03 91 1019.9
20260902183105 78 344 0.0 2.0 0.00 0.47 0.03 90 1019.7
20260902182550 79 0 0.0 1.0 0.00 0.47 0.03 90 1019.4
20260902182055 79 88 0.0 1.0 0.00 0.47 0.03 90 1019.3
20260902181623 79 136 0.0 1.0 0.00 0.47 0.03 90 1019.3
20260902181051 79 0 0.0 1.0 0.00 0.47 0.03 90 1019.2
20260902180553 79 115 0.0 1.0 0.00 0.47 0.03 89 1019.3
20260902175553 79 48 1.0 2.0 0.00 0.47 0.03 89 1019.3
20260902175054 79 46 0.0 2.0 0.00 0.47 0.03 88 1019.5
20260902174558 79 0 0.0 2.0 0.00 0.47 0.03 88 1019.5
20260902174053 79 197 0.0 3.0 0.00 0.47 0.03 88 1019.3
20260902173551 79 59 1.0 4.0 0.00 0.47 0.03 89 1019.3
20260902173102 79 60 2.0 4.0 0.00 0.47 0.03 89 1019.3
20260902172550 79 63 1.0 3.0 0.00 0.47 0.03 89 1019.3
20260902172053 79 55 1.0 3.0 0.00 0.47 0.03 90 1019.4
20260902171620 79 55 1.0 3.0 0.00 0.47 0.03 90 1019.4
20260902171051 79 73 1.0 3.0 0.00 0.47 0.03 90 1019.4
20260902170551 79 128 0.0 3.0 0.00 0.47 0.03 89 1019.3
20260902170103 79 20 1.0 3.0 0.00 0.47 0.03 90 1019.2
20260902165554 79 80 1.0 3.0 0.00 0.47 0.03 90 1019.1
20260902165052 79 63 1.0 3.0 0.00 0.47 0.03 89 1018.9
20260902164604 79 0 0.0 1.0 0.00 0.47 0.03 89 1018.9
20260902164054 79 0 0.0 1.0 0.00 0.47 0.03 90 1018.9
20260902163555 79 53 0.0 2.0 0.00 0.47 0.03 90 1018.9
20260902163106 79 0 0.0 2.0 0.00 0.47 0.03 90 1019.0
20260902162558 79 51 1.0 3.0 0.00 0.47 0.03 89 1019.1
20260902162057 79 56 0.0 3.0 0.00 0.47 0.03 90 1019.0